Simultaneous Nadir Overpasses (SNOs) Predictions

Prediction of SNOs between GOES-15 and METOP-C Satellite Orbit:

Table of predicted SNOs for the next 14.0 days since TLE Epoch: 10/15/2022
Index Date Time (GOES-15) GOES-15 Lat,Lon METOP-C Lat,Lon Distance(km) Time Diff (sec)
1 10/15/2022 05:45:52 0.27,-128.35 1.14,-124.46 443.47 80
2 10/16/2022 18:04:44 -0.28,-128.38 -0.13,-129.02 72.25 80
3 10/17/2022 17:46:46 -0.27,-128.39 -1.24,-124.02 497.86 80
4 10/19/2022 06:05:48 0.28,-128.38 0.21,-128.62 27.82 80
5 10/21/2022 18:04:02 -0.27,-128.41 -0.31,-128.19 24.40 80
6 10/24/2022 05:59:45 0.27,-128.40 0.42,-127.80 68.79 80
7 10/25/2022 18:18:38 -0.28,-128.41 0.59,-132.36 450.43 80
8 10/26/2022 18:00:39 -0.27,-128.41 -0.53,-127.37 118.67 80
9 10/28/2022 06:19:41 0.27,-128.40 -0.52,-131.96 406.32 80
